CZ-3A DEB, 35556

Orbit data source: Space-Track

CZ-3A DEB, 35556 is space debris in HEO originally from a launch on Fri, 02 Feb 2007 UTC launched from the Xichang Space Center, China (XSC). Debris objects in space refer to the collection of defunct objects orbiting the Earth. Examples of debris include non-operational satellites, rocket bodies, and fragments generated from explosions, collisions, or faulty payload assembly.

Loading next visibility...
Identifier
35556, 2007-003Q
Orbit
HEO
Country
Flag of CNCN / PRC
Related business
Manufacturer
Unknown
Mission
Spacecraft
Bus & Motor
Unknown
Mass
Unknown
Launch date (UTC)
2007-02-02 (19 years ago)
Launch vehicle
Unknown
Launch site
Xichang Space Center, China (XSC)
Object type
Payload
Rocket body
Debris
Shape & HBR
Unknown shape, 0.3 m
Radar Cross Section
Medium (>0.1 m² and <1 m²)

Expand to show TLE details & history
Last TLE update: 2 months ago

TLE from 2 months ago
0 CZ-3A DEB
1 35556U 07003Q   25271.72731594  .00010866  00000-0  48005-1 0  9998
2 35556  26.0901 353.3541 7237556 252.6015  22.3328  2.23354825  9546
Epoch: 2025-09-28T17:27Z
TLE epoch observation values (Epoch: 2025-09-28T17:27:20.097Z)
Latitude
0.00024°
Longitude
83.79525°
Altitude
8,693.94 km
Speed
6.064 km/s
True Right ascension
23h 33m 28s
True Declination
0° 00' 01"
Sunlit
Object was in full shadow at epoch
Visualization orbit readout
Latitude
Unknown
Longitude
Unknown
Altitude
Unknown
Speed
Unknown
Apparent Right ascension
Unknown
Apparent Declination
Unknown
Sunlit
N/A
Visualization observer readout
Local Sidereal Time
17:55:52
Azimuth
Unknown
Elevation
Unknown
Doppler factor
Unknown
Orbital elements
Apogee altitude
36,242.034 km
Perigee altitude
452.056 km
Semi-major axis
24,725.182 km
Eccentricity
0.72376
Inclination
26.0901°
RAAN
353.3541°
Arg. of periapsis
252.6015°
True anomaly
107.40513°
Mean anomaly
22.3328°
Eccentric anomaly
57.18278°
Mean motion
0.55826 °/min
Orbital period
644.86 mins
BSTAR
0.048005
Loading maneuver chart data...
Computing Atmospheric mass density...
Loading historical data...
Loading historical data...
Loading historical data...
Loading historical data...
Loading historical data...
Loading historical data...
Loading historical data...

Documentation

Showing up to 5 results
|